START_TIME,STEP,MOV.,M34,t_acc.,L5,t_acc.,L18,t_acc.,L14,t_acc.
1979-07-04 18:00:25.490 ,0,1,0.,12.0,0.,12.0,0.,12.0,0.,12.0
1979-07-04 18:00:37.490 ,0,1,0.,12.0,0.,12.0,0.,12.0,0.,12.0
1979-07-04 18:00:49.490 ,3,1,0.,12.0,0.,12.0,0.,12.0,0.,12.0
1979-07-04 18:01:01.490 ,3,1,0.,12.0,0.,12.0,0.,12.0,0.,12.0
1979-07-04 18:01:13.490 ,7,1,0.,12.0,0.,12.0,0.,12.0,0.,12.0
1979-07-04 18:01:25.490 ,7,1,0.,12.0,0.,12.0,0.,12.0,0.,12.0
1979-07-04 18:01:37.490 ,4,1,0.,12.0,0.,12.0,0.,12.0,0.,12.0
1979-07-04 18:01:49.490 ,4,1,0.,12.0,0.,12.0,0.,12.0,0.,12.0
1979-07-04 18:02:01.490 ,0,1,0.,12.0,0.,12.0,0.,12.0,0.,12.0
1979-07-04 18:02:13.490 ,0,1,0.,12.0,0.,12.0,0.,12.0,0.,12.0
1979-07-04 18:02:25.490 ,3,1,0.,12.0,0.,12.0,0.,12.0,0.,12.0
1979-07-04 18:02:37.490 ,3,1,0.,12.0,0.,12.0,0.,12.0,0.,12.0
1979-07-04 18:02:49.490 ,7,1,0.,12.0,0.,12.0,0.,12.0,0.,12.0
1979-07-04 18:03:01.490 ,7,1,0.,12.0,0.,12.0,0.,12.0,0.,12.0
1979-07-04 18:03:13.490 ,4,1,0.,12.0,0.,12.0,0.,12.0,0.,12.0
1979-07-04 18:03:25.490 ,4,1,0.,12.0,0.,12.0,0.,12.0,0.,12.0
1979-07-04 18:03:37.490 ,0,1,0.,12.0,0.,12.0,0.,12.0,0.,12.0
1979-07-04 18:03:49.490 ,0,1,0.,12.0,0.,12.0,0.,12.0,0.,12.0
1979-07-04 18:04:01.490 ,3,1,0.,12.0,0.,12.0,0.,12.0,0.,12.0
1979-07-04 18:04:13.490 ,3,1,0.,12.0,0.,12.0,0.,12.0,0.,12.0
1979-07-04 18:04:25.490 ,7,1,0.,12.0,0.,12.0,0.,12.0,0.,12.0
1979-07-04 18:04:37.490 ,7,1,0.,12.0,0.,12.0,0.,12.0,0.,12.0
1979-07-04 18:04:49.490 ,4,1,0.,12.0,0.,12.0,0.,12.0,0.,12.0
1979-07-04 18:05:01.490 ,4,1,0.,12.0,0.,12.0,0.,12.0,0.,12.0
1979-07-04 18:05:13.490 ,0,1,0.,12.0,0.,12.0,0.,12.0,0.,12.0
1979-07-04 18:05:25.490 ,0,1,0.,12.0,0.,12.0,0.,12.0,0.,12.0
1979-07-04 18:05:37.490 ,0,0,0.,12.0,0.,12.0,0.,12.0,0.,12.0
1979-07-04 18:05:49.490 ,0,0,0.,12.0,0.,12.0,0.,12.0,0.,12.0
1979-07-04 18:06:01.490 ,0,0,0.,12.0,0.,12.0,0.,12.0,0.,12.0
1979-07-04 18:06:13.490 ,0,0,0.,12.0,0.,12.0,0.,12.0,0.,12.0
1979-07-04 18:06:25.490 ,5,1,0.,12.0,0.,12.0,0.,12.0,0.,12.0
1979-07-04 18:06:37.490 ,5,1,0.,12.0,0.,12.0,0.,12.0,0.,12.0
1979-07-04 18:06:49.490 ,5,0,0.,12.0,0.,12.0,0.,12.0,0.,12.0
1979-07-04 18:07:01.490 ,5,0,0.,12.0,0.,12.0,0.,12.0,0.,12.0
1979-07-04 18:07:13.490 ,4,1,0.,12.0,0.,12.0,0.,12.0,0.,12.0
1979-07-04 18:07:25.490 ,4,1,0.,12.0,0.,12.0,0.,12.0,0.,12.0
1979-07-04 18:07:37.490 ,4,0,0.,12.0,0.,12.0,0.,12.0,0.,12.0
1979-07-04 18:07:49.490 ,4,0,0.,12.0,0.,12.0,0.,12.0,0.,12.0
1979-07-04 18:08:01.490 ,3,1,0.,12.0,0.,12.0,0.,12.0,0.,12.0
1979-07-04 18:08:13.490 ,3,1,0.,12.0,0.,12.0,0.,12.0,0.,12.0
1979-07-04 18:08:25.490 ,3,0,0.,12.0,0.,12.0,0.,12.0,0.,12.0
1979-07-04 18:08:37.490 ,3,0,0.,12.0,0.,12.0,0.,12.0,0.,12.0
1979-07-04 18:08:49.490 ,2,1,0.,12.0,0.,12.0,0.,12.0,0.,12.0
1979-07-04 18:09:01.490 ,2,1,0.,12.0,0.,12.0,0.,12.0,0.,12.0
1979-07-04 18:09:13.490 ,2,0,0.,12.0,0.,12.0,0.,12.0,0.,12.0
1979-07-04 18:09:25.490 ,2,0,0.,12.0,0.,12.0,0.,12.0,0.,12.0
1979-07-04 18:09:37.490 ,1,1,0.,12.0,0.,12.0,0.,12.0,0.,12.0
1979-07-04 18:09:49.490 ,1,1,0.,12.0,0.,12.0,0.,12.0,0.,12.0
1979-07-04 18:10:01.490 ,1,0,0.,12.0,0.,12.0,0.,12.0,0.,12.0
1979-07-04 18:10:13.490 ,1,0,0.,12.0,0.,12.0,0.,12.0,0.,12.0
1979-07-04 18:10:25.490 ,0,1,0.,12.0,0.,12.0,0.,12.0,0.,12.0
1979-07-04 18:10:37.490 ,0,1,0.,12.0,0.,12.0,0.,12.0,0.,12.0
1979-07-04 18:10:49.490 ,0,0,0.,12.0,0.,12.0,0.,12.0,0.,12.0
1979-07-04 18:11:01.490 ,0,0,0.,12.0,0.,12.0,0.,12.0,0.,12.0
1979-07-04 18:11:13.490 ,0,1,0.,12.0,0.,12.0,0.,12.0,0.,12.0
1979-07-04 18:11:25.490 ,0,1,0.,12.0,0.,12.0,0.,12.0,0.,12.0
1979-07-04 18:11:37.490 ,0,0,0.,12.0,0.,12.0,0.,12.0,0.,12.0
1979-07-04 18:11:49.490 ,0,0,0.,12.0,0.,12.0,0.,12.0,0.,12.0
1979-07-04 18:12:01.490 ,1,1,0.,12.0,0.,12.0,0.,12.0,0.,12.0
1979-07-04 18:12:13.490 ,1,1,0.,12.0,0.,12.0,0.,12.0,0.,12.0
1979-07-04 18:12:25.490 ,1,0,0.,12.0,0.,12.0,0.,12.0,0.,12.0
1979-07-04 18:12:37.490 ,1,0,0.,12.0,0.,12.0,0.,12.0,0.,12.0
1979-07-04 18:12:49.490 ,2,1,0.,12.0,0.,12.0,0.,12.0,0.,12.0
1979-07-04 18:13:01.490 ,2,1,0.,12.0,0.,12.0,0.,12.0,0.,12.0
1979-07-04 18:13:13.490 ,2,0,0.,12.0,0.,12.0,0.,12.0,0.,12.0
1979-07-04 18:13:25.490 ,2,0,0.,12.0,0.,12.0,0.,12.0,0.,12.0
1979-07-04 18:13:37.490 ,3,1,0.,12.0,0.,12.0,0.,12.0,0.,12.0
1979-07-04 18:13:49.490 ,3,1,0.,12.0,0.,12.0,0.,12.0,0.,12.0
1979-07-04 18:14:01.490 ,3,0,0.,12.0,0.,12.0,0.,12.0,0.,12.0
1979-07-04 18:14:13.490 ,3,0,0.,12.0,0.,12.0,0.,12.0,0.,12.0
1979-07-04 18:14:25.490 ,4,1,0.,12.0,0.,12.0,0.,12.0,0.,12.0
1979-07-04 18:14:37.490 ,4,1,0.,12.0,0.,12.0,0.,12.0,0.,12.0
1979-07-04 18:14:49.490 ,4,0,0.,12.0,0.,12.0,0.,12.0,0.,12.0
1979-07-04 18:15:01.490 ,4,0,0.,12.0,0.,12.0,0.,12.0,0.,12.0
1979-07-04 18:15:13.490 ,5,1,0.,12.0,0.,12.0,0.,12.0,0.,12.0
1979-07-04 18:15:25.490 ,5,1,0.,12.0,0.,12.0,0.,12.0,0.,12.0
1979-07-04 18:15:37.490 ,5,0,0.,12.0,0.,12.0,0.,12.0,0.,12.0
1979-07-04 18:15:49.490 ,5,0,0.,12.0,0.,12.0,0.,12.0,0.,12.0
1979-07-04 18:16:01.490 ,6,1,0.,12.0,0.,12.0,0.,12.0,0.,12.0
1979-07-04 18:16:13.490 ,6,1,0.,12.0,0.,12.0,0.,12.0,0.,12.0
1979-07-04 18:16:25.490 ,6,0,0.,12.0,0.,12.0,0.,12.0,0.,12.0
1979-07-04 18:16:37.490 ,6,0,0.,12.0,0.,12.0,0.,12.0,0.,12.0
1979-07-04 18:16:49.490 ,7,1,0.,12.0,0.,12.0,0.,12.0,0.,12.0
1979-07-04 18:17:01.490 ,7,1,0.,12.0,0.,12.0,0.,12.0,0.,12.0
1979-07-04 18:17:13.490 ,7,0,0.,12.0,0.,12.0,0.,12.0,0.,12.0
1979-07-04 18:17:25.490 ,7,0,0.,12.0,0.,12.0,0.,12.0,0.,12.0
1979-07-04 18:17:37.490 ,7,1,0.,12.0,0.,12.0,0.,12.0,0.,12.0
1979-07-04 18:17:49.490 ,7,1,0.,12.0,0.,12.0,0.,12.0,0.,12.0
1979-07-04 18:18:01.490 ,7,0,0.,12.0,0.,12.0,0.,12.0,0.,12.0
1979-07-04 18:18:13.490 ,7,0,0.,12.0,0.,12.0,0.,12.0,0.,12.0
1979-07-04 18:18:25.480 ,6,1,0.,12.0,0.,12.0,0.,12.0,0.,12.0
1979-07-04 18:18:37.480 ,6,1,0.,12.0,0.,12.0,0.,12.0,0.,12.0
1979-07-04 18:18:49.480 ,6,0,0.,12.0,0.,12.0,0.,12.0,0.,12.0
1979-07-04 18:19:01.480 ,6,0,0.,12.0,0.,12.0,0.,12.0,0.,12.0
1979-07-04 18:19:13.480 ,5,1,0.,12.0,0.,12.0,0.,12.0,0.,12.0
1979-07-04 18:19:25.480 ,5,1,1.,12.0,0.,12.0,0.,12.0,0.,12.0
1979-07-04 18:19:37.480 ,5,0,0.,12.0,0.,12.0,0.,12.0,0.,12.0
1979-07-04 18:19:49.480 ,5,0,0.,12.0,0.,12.0,0.,12.0,0.,12.0
1979-07-04 18:20:01.480 ,4,1,0.,12.0,0.,12.0,0.,12.0,0.,12.0
1979-07-04 18:20:13.480 ,4,1,0.,12.0,0.,12.0,0.,12.0,0.,12.0
1979-07-04 18:20:25.480 ,4,0,0.,12.0,0.,12.0,0.,12.0,0.,12.0
1979-07-04 18:20:37.480 ,4,0,0.,12.0,0.,12.0,0.,12.0,0.,12.0
1979-07-04 18:20:49.480 ,3,1,0.,12.0,0.,12.0,0.,12.0,0.,12.0
1979-07-04 18:21:01.480 ,3,1,0.,12.0,0.,12.0,0.,12.0,0.,12.0
1979-07-04 18:21:13.480 ,3,0,0.,12.0,0.,12.0,0.,12.0,0.,12.0
1979-07-04 18:21:25.480 ,3,0,0.,12.0,0.,12.0,0.,12.0,0.,12.0
1979-07-04 18:21:37.480 ,2,1,0.,12.0,0.,12.0,0.,12.0,0.,12.0
1979-07-04 18:21:49.480 ,2,1,0.,12.0,0.,12.0,0.,12.0,0.,12.0
1979-07-04 18:22:01.480 ,2,0,0.,12.0,0.,12.0,0.,12.0,0.,12.0
1979-07-04 18:22:13.480 ,2,0,1.,12.0,0.,12.0,0.,12.0,0.,12.0
1979-07-04 18:22:25.480 ,1,1,0.,12.0,0.,12.0,0.,12.0,0.,12.0
1979-07-04 18:22:37.480 ,1,1,0.,12.0,0.,12.0,0.,12.0,0.,12.0
1979-07-04 18:22:49.480 ,1,0,0.,12.0,0.,12.0,0.,12.0,0.,12.0
1979-07-04 18:23:01.480 ,1,0,0.,12.0,0.,12.0,0.,12.0,0.,12.0
1979-07-04 18:23:13.480 ,0,1,0.,12.0,0.,12.0,0.,12.0,0.,12.0
1979-07-04 18:23:25.480 ,0,1,0.,12.0,0.,12.0,0.,12.0,0.,12.0
1979-07-04 18:23:37.480 ,0,0,0.,12.0,0.,12.0,0.,12.0,0.,12.0
1979-07-04 18:23:49.480 ,0,0,0.,12.0,0.,12.0,0.,12.0,0.,12.0
1979-07-04 18:24:01.480 ,0,1,0.,12.0,0.,12.0,0.,12.0,0.,12.0
1979-07-04 18:24:13.480 ,0,1,0.,12.0,0.,12.0,0.,12.0,0.,12.0
1979-07-04 18:24:25.480 ,0,0,0.,12.0,0.,12.0,0.,12.0,0.,12.0
1979-07-04 18:24:37.480 ,0,0,0.,12.0,0.,12.0,0.,12.0,0.,12.0
1979-07-04 18:24:49.480 ,1,1,0.,12.0,0.,12.0,0.,12.0,0.,12.0
1979-07-04 18:25:01.480 ,1,1,0.,12.0,0.,12.0,0.,12.0,0.,12.0
1979-07-04 18:25:13.480 ,1,0,0.,12.0,0.,12.0,0.,12.0,0.,12.0
1979-07-04 18:25:25.480 ,1,0,0.,12.0,0.,12.0,0.,12.0,0.,12.0
1979-07-04 18:25:37.480 ,2,1,0.,12.0,0.,12.0,0.,12.0,0.,12.0
1979-07-04 18:25:49.480 ,2,1,0.,12.0,0.,12.0,0.,12.0,0.,12.0
1979-07-04 18:26:01.480 ,2,0,0.,12.0,0.,12.0,0.,12.0,0.,12.0
1979-07-04 18:26:13.480 ,2,0,0.,12.0,0.,12.0,0.,12.0,0.,12.0
1979-07-04 18:26:25.480 ,3,1,1.,12.0,0.,12.0,0.,12.0,0.,12.0
1979-07-04 18:26:37.480 ,3,1,0.,12.0,0.,12.0,0.,12.0,0.,12.0
1979-07-04 18:26:49.480 ,3,0,0.,12.0,0.,12.0,0.,12.0,0.,12.0
1979-07-04 18:27:01.480 ,3,0,0.,12.0,0.,12.0,0.,12.0,0.,12.0
1979-07-04 18:27:13.480 ,4,1,0.,12.0,0.,12.0,0.,12.0,0.,12.0
1979-07-04 18:27:25.480 ,4,1,0.,12.0,0.,12.0,0.,12.0,0.,12.0
1979-07-04 18:27:37.480 ,4,0,0.,12.0,0.,12.0,0.,12.0,0.,12.0
1979-07-04 18:27:49.480 ,4,0,0.,12.0,0.,12.0,0.,12.0,0.,12.0
1979-07-04 18:28:01.480 ,5,1,0.,12.0,0.,12.0,0.,12.0,0.,12.0
1979-07-04 18:28:13.480 ,5,1,0.,12.0,0.,12.0,0.,12.0,0.,12.0
1979-07-04 18:28:25.480 ,5,0,0.,12.0,0.,12.0,0.,12.0,0.,12.0
1979-07-04 18:28:37.480 ,5,0,0.,12.0,0.,12.0,0.,12.0,0.,12.0
1979-07-04 18:28:49.480 ,6,1,0.,12.0,0.,12.0,0.,12.0,0.,12.0
1979-07-04 18:29:01.480 ,6,1,0.,12.0,0.,12.0,0.,12.0,0.,12.0
1979-07-04 18:29:13.480 ,6,0,0.,12.0,0.,12.0,0.,12.0,0.,12.0
1979-07-04 18:29:25.480 ,6,0,0.,12.0,0.,12.0,0.,12.0,0.,12.0
1979-07-04 18:29:37.480 ,7,1,0.,12.0,0.,12.0,0.,12.0,0.,12.0
1979-07-04 18:29:49.480 ,7,1,0.,12.0,0.,12.0,0.,12.0,0.,12.0
1979-07-04 18:30:01.480 ,7,0,0.,12.0,0.,12.0,0.,12.0,0.,12.0
1979-07-04 18:30:13.480 ,7,0,0.,12.0,0.,12.0,0.,12.0,0.,12.0
1979-07-04 18:30:25.480 ,7,1,0.,12.0,0.,12.0,0.,12.0,0.,12.0
1979-07-04 18:30:37.480 ,7,1,0.,12.0,0.,12.0,0.,12.0,0.,12.0
1979-07-04 18:30:49.480 ,7,0,0.,12.0,0.,12.0,0.,12.0,0.,12.0
1979-07-04 18:31:01.480 ,7,0,0.,12.0,0.,12.0,0.,12.0,0.,12.0
1979-07-04 18:31:13.480 ,6,1,0.,12.0,0.,12.0,0.,12.0,0.,12.0
1979-07-04 18:31:25.480 ,6,1,0.,12.0,0.,12.0,0.,12.0,0.,12.0
1979-07-04 18:31:37.480 ,6,0,0.,12.0,0.,12.0,0.,12.0,0.,12.0
1979-07-04 18:31:49.480 ,6,0,0.,12.0,0.,12.0,0.,12.0,0.,12.0
1979-07-04 18:32:01.480 ,5,1,0.,12.0,0.,12.0,0.,12.0,0.,12.0
1979-07-04 18:32:13.480 ,5,1,0.,12.0,0.,12.0,0.,12.0,0.,12.0
1979-07-04 18:32:25.480 ,5,0,0.,12.0,0.,12.0,0.,12.0,0.,12.0
1979-07-04 18:32:37.480 ,5,0,0.,12.0,0.,12.0,0.,12.0,0.,12.0
1979-07-04 18:32:49.480 ,4,1,0.,12.0,0.,12.0,0.,12.0,0.,12.0
1979-07-04 18:33:01.480 ,4,1,0.,12.0,0.,12.0,0.,12.0,0.,12.0
1979-07-04 18:33:13.480 ,4,0,0.,12.0,0.,12.0,0.,12.0,0.,12.0
1979-07-04 18:33:25.480 ,4,0,0.,12.0,0.,12.0,0.,12.0,0.,12.0
1979-07-04 18:33:37.480 ,3,1,0.,12.0,0.,12.0,0.,12.0,0.,12.0
1979-07-04 18:33:49.480 ,3,1,0.,12.0,0.,12.0,0.,12.0,0.,12.0
1979-07-04 18:34:01.480 ,3,0,0.,12.0,0.,12.0,0.,12.0,0.,12.0
1979-07-04 18:34:13.490 ,3,0,0.,12.0,0.,12.0,0.,12.0,0.,12.0
1979-07-04 18:34:25.480 ,2,1,0.,12.0,0.,12.0,0.,12.0,0.,12.0
1979-07-04 18:34:37.480 ,2,1,0.,12.0,0.,12.0,0.,12.0,0.,12.0
1979-07-04 18:34:49.480 ,2,0,0.,12.0,0.,12.0,0.,12.0,0.,12.0
1979-07-04 18:35:01.480 ,2,0,0.,12.0,0.,12.0,0.,12.0,0.,12.0
1979-07-04 18:35:13.480 ,1,1,0.,12.0,0.,12.0,0.,12.0,0.,12.0
1979-07-04 18:35:25.480 ,1,1,0.,12.0,0.,12.0,0.,12.0,0.,12.0
1979-07-04 18:35:37.480 ,1,0,0.,12.0,0.,12.0,0.,12.0,0.,12.0
1979-07-04 18:35:49.480 ,1,0,0.,12.0,0.,12.0,0.,12.0,0.,12.0
1979-07-04 18:36:01.480 ,0,1,0.,12.0,0.,12.0,0.,12.0,0.,12.0
1979-07-04 18:36:13.480 ,0,1,0.,12.0,0.,12.0,0.,12.0,0.,12.0
1979-07-04 18:36:25.480 ,0,0,1.,12.0,0.,12.0,0.,12.0,0.,12.0
1979-07-04 18:36:37.480 ,0,0,0.,12.0,0.,12.0,0.,12.0,0.,12.0
1979-07-04 18:36:49.480 ,0,1,0.,12.0,0.,12.0,0.,12.0,0.,12.0
1979-07-04 18:37:01.480 ,0,1,0.,12.0,0.,12.0,0.,12.0,0.,12.0
1979-07-04 18:37:13.480 ,0,0,0.,12.0,0.,12.0,0.,12.0,0.,12.0
1979-07-04 18:37:25.480 ,0,0,0.,12.0,0.,12.0,0.,12.0,0.,12.0
1979-07-04 18:37:37.480 ,1,1,0.,12.0,0.,12.0,0.,12.0,0.,12.0
1979-07-04 18:37:49.480 ,1,1,0.,12.0,0.,12.0,0.,12.0,0.,12.0
1979-07-04 18:38:01.480 ,1,0,0.,12.0,0.,12.0,0.,12.0,0.,12.0
1979-07-04 18:38:13.480 ,1,0,0.,12.0,0.,12.0,0.,12.0,0.,12.0
1979-07-04 18:38:25.480 ,2,1,0.,12.0,0.,12.0,0.,12.0,0.,12.0
1979-07-04 18:38:37.480 ,2,1,0.,12.0,0.,12.0,0.,12.0,0.,12.0
1979-07-04 18:38:49.480 ,2,0,0.,12.0,0.,12.0,0.,12.0,0.,12.0
1979-07-04 18:39:01.480 ,2,0,0.,12.0,0.,12.0,0.,12.0,0.,12.0
1979-07-04 18:39:13.480 ,3,1,0.,12.0,0.,12.0,0.,12.0,0.,12.0
1979-07-04 18:39:25.480 ,3,1,0.,12.0,0.,12.0,0.,12.0,0.,12.0
1979-07-04 18:39:37.480 ,3,0,0.,12.0,0.,12.0,0.,12.0,0.,12.0
1979-07-04 18:39:49.480 ,3,0,0.,12.0,0.,12.0,0.,12.0,0.,12.0
1979-07-04 18:40:01.480 ,4,1,0.,12.0,0.,12.0,0.,12.0,0.,12.0
1979-07-04 18:40:13.480 ,4,1,0.,12.0,0.,12.0,0.,12.0,0.,12.0
1979-07-04 18:40:25.480 ,4,0,0.,12.0,0.,12.0,0.,12.0,0.,12.0
1979-07-04 18:40:37.480 ,4,0,0.,12.0,0.,12.0,0.,12.0,0.,12.0
1979-07-04 18:40:49.480 ,5,1,0.,12.0,0.,12.0,0.,12.0,0.,12.0
1979-07-04 18:41:01.480 ,5,1,0.,12.0,0.,12.0,0.,12.0,0.,12.0
1979-07-04 18:41:13.480 ,5,0,0.,12.0,0.,12.0,0.,12.0,0.,12.0
1979-07-04 18:41:25.480 ,5,0,1.,12.0,0.,12.0,0.,12.0,0.,12.0
1979-07-04 18:41:37.480 ,6,1,0.,12.0,0.,12.0,0.,12.0,0.,12.0
1979-07-04 18:41:49.480 ,6,1,0.,12.0,0.,12.0,0.,12.0,0.,12.0
1979-07-04 18:42:01.480 ,6,0,0.,12.0,0.,12.0,0.,12.0,0.,12.0
1979-07-04 18:42:13.480 ,6,0,0.,12.0,0.,12.0,0.,12.0,0.,12.0
1979-07-04 18:42:25.480 ,7,0,0.,12.0,0.,12.0,0.,12.0,0.,12.0
1979-07-04 18:42:37.480 ,7,0,0.,12.0,0.,12.0,0.,12.0,0.,12.0
1979-07-04 18:42:49.480 ,7,0,0.,12.0,0.,12.0,0.,12.0,0.,12.0
1979-07-04 18:43:01.480 ,7,0,0.,12.0,0.,12.0,0.,12.0,0.,12.0
1979-07-04 18:43:13.480 ,4,1,0.,12.0,0.,12.0,0.,12.0,0.,12.0
1979-07-04 18:43:25.480 ,4,1,0.,12.0,0.,12.0,0.,12.0,0.,12.0
1979-07-04 18:43:37.480 ,0,1,0.,12.0,0.,12.0,0.,12.0,0.,12.0
1979-07-04 18:43:49.480 ,0,1,0.,12.0,0.,12.0,0.,12.0,0.,12.0
1979-07-04 18:44:01.480 ,3,1,0.,12.0,0.,12.0,0.,12.0,0.,12.0
1979-07-04 18:44:13.480 ,3,1,0.,12.0,0.,12.0,0.,12.0,0.,12.0
1979-07-04 18:44:25.480 ,7,1,0.,12.0,0.,12.0,0.,12.0,0.,12.0
1979-07-04 18:44:37.480 ,7,1,0.,12.0,0.,12.0,0.,12.0,0.,12.0
1979-07-04 18:44:49.480 ,4,1,0.,12.0,0.,12.0,0.,12.0,0.,12.0
1979-07-04 18:45:01.480 ,4,1,0.,12.0,0.,12.0,0.,12.0,0.,12.0
1979-07-04 18:45:13.480 ,0,1,0.,12.0,0.,12.0,0.,12.0,0.,12.0
1979-07-04 18:45:25.480 ,0,1,0.,12.0,0.,12.0,0.,12.0,0.,12.0
1979-07-04 18:45:37.480 ,3,1,0.,12.0,0.,12.0,0.,12.0,0.,12.0
1979-07-04 18:45:49.480 ,3,1,0.,12.0,0.,12.0,0.,12.0,0.,12.0
1979-07-04 18:46:01.480 ,7,1,0.,12.0,0.,12.0,0.,12.0,0.,12.0
1979-07-04 18:46:13.480 ,7,1,0.,12.0,0.,12.0,0.,12.0,0.,12.0
1979-07-04 18:46:25.480 ,4,1,0.,12.0,0.,12.0,0.,12.0,0.,12.0
1979-07-04 18:46:37.480 ,4,1,0.,12.0,0.,12.0,0.,12.0,0.,12.0
1979-07-04 18:46:49.480 ,0,1,0.,12.0,0.,12.0,0.,12.0,0.,12.0
1979-07-04 18:47:01.480 ,0,1,0.,12.0,0.,12.0,0.,12.0,0.,12.0
1979-07-04 18:47:13.480 ,3,1,0.,12.0,0.,12.0,0.,12.0,0.,12.0
1979-07-04 18:47:25.480 ,3,1,0.,12.0,0.,12.0,0.,12.0,0.,12.0
1979-07-04 18:47:37.480 ,7,1,0.,12.0,0.,12.0,0.,12.0,0.,12.0
1979-07-04 18:47:49.480 ,7,1,0.,12.0,0.,12.0,0.,12.0,0.,12.0
1979-07-04 18:48:01.480 ,4,1,0.,12.0,0.,12.0,0.,12.0,0.,12.0
1979-07-04 18:48:13.480 ,4,1,0.,12.0,0.,12.0,0.,12.0,0.,12.0
1979-07-04 18:48:25.480 ,0,1,0.,12.0,0.,12.0,0.,12.0,0.,12.0
1979-07-04 18:48:37.480 ,0,1,0.,12.0,0.,12.0,0.,12.0,0.,12.0
1979-07-04 18:48:49.480 ,3,1,0.,12.0,0.,12.0,0.,12.0,0.,12.0
1979-07-04 18:49:01.480 ,3,1,0.,12.0,0.,12.0,0.,12.0,0.,12.0
1979-07-04 18:49:13.480 ,7,1,0.,12.0,0.,12.0,0.,12.0,0.,12.0
1979-07-04 18:49:25.480 ,7,1,0.,12.0,0.,12.0,0.,12.0,0.,12.0
1979-07-04 18:49:37.480 ,4,1,0.,12.0,0.,12.0,0.,12.0,0.,12.0
1979-07-04 18:49:49.480 ,4,1,0.,12.0,0.,12.0,0.,12.0,0.,12.0
1979-07-04 18:50:01.480 ,0,1,0.,12.0,0.,12.0,0.,12.0,0.,12.0
1979-07-04 18:50:13.480 ,0,1,0.,12.0,0.,12.0,0.,12.0,0.,12.0
1979-07-04 18:50:25.480 ,3,1,0.,12.0,0.,12.0,0.,12.0,0.,12.0
1979-07-04 18:50:37.480 ,3,1,0.,12.0,0.,12.0,0.,12.0,0.,12.0
1979-07-04 18:50:49.480 ,7,1,0.,12.0,0.,12.0,0.,12.0,0.,12.0
1979-07-04 18:51:01.480 ,7,1,0.,12.0,0.,12.0,0.,12.0,0.,12.0
1979-07-04 18:51:13.480 ,4,1,0.,12.0,0.,12.0,0.,12.0,0.,12.0
1979-07-04 18:51:25.480 ,4,1,0.,12.0,0.,12.0,0.,12.0,0.,12.0
1979-07-04 18:51:37.480 ,0,1,0.,12.0,0.,12.0,0.,12.0,0.,12.0
1979-07-04 18:51:49.480 ,0,1,0.,12.0,0.,12.0,0.,12.0,0.,12.0
1979-07-04 18:52:01.480 ,3,1,0.,12.0,0.,12.0,0.,12.0,0.,12.0
1979-07-04 18:52:13.480 ,3,1,0.,12.0,0.,12.0,0.,12.0,0.,12.0
1979-07-04 18:52:25.480 ,7,1,0.,12.0,0.,12.0,0.,12.0,0.,12.0
1979-07-04 18:52:37.480 ,7,1,0.,12.0,0.,12.0,0.,12.0,0.,12.0
1979-07-04 18:52:49.480 ,4,1,0.,12.0,0.,12.0,0.,12.0,0.,12.0
1979-07-04 18:53:01.480 ,4,1,0.,12.0,0.,12.0,0.,12.0,0.,12.0
1979-07-04 18:53:13.480 ,0,1,0.,12.0,0.,12.0,0.,12.0,0.,12.0
1979-07-04 18:53:25.480 ,0,1,0.,12.0,0.,12.0,0.,12.0,0.,12.0
1979-07-04 18:53:37.480 ,0,0,0.,12.0,0.,12.0,0.,12.0,0.,12.0
1979-07-04 18:53:49.480 ,0,0,0.,12.0,0.,12.0,0.,12.0,0.,12.0
1979-07-04 18:54:01.480 ,0,0,0.,12.0,0.,12.0,0.,12.0,0.,12.0
1979-07-04 18:54:13.480 ,0,0,0.,12.0,0.,12.0,0.,12.0,0.,12.0
1979-07-04 18:54:25.480 ,5,1,0.,12.0,0.,12.0,0.,12.0,0.,12.0
1979-07-04 18:54:37.480 ,5,1,0.,12.0,0.,12.0,0.,12.0,0.,12.0
1979-07-04 18:54:49.480 ,5,0,0.,12.0,0.,12.0,0.,12.0,0.,12.0
1979-07-04 18:55:01.480 ,5,0,0.,12.0,0.,12.0,0.,12.0,0.,12.0
1979-07-04 18:55:13.480 ,4,1,0.,12.0,0.,12.0,0.,12.0,0.,12.0
1979-07-04 18:55:25.480 ,4,1,0.,12.0,0.,12.0,0.,12.0,0.,12.0
1979-07-04 18:55:37.480 ,4,0,0.,12.0,0.,12.0,0.,12.0,0.,12.0
1979-07-04 18:55:49.480 ,4,0,0.,12.0,0.,12.0,0.,12.0,0.,12.0
1979-07-04 18:56:01.480 ,3,1,0.,12.0,0.,12.0,0.,12.0,0.,12.0
1979-07-04 18:56:13.480 ,3,1,0.,12.0,0.,12.0,0.,12.0,0.,12.0
1979-07-04 18:56:25.480 ,3,0,0.,12.0,0.,12.0,0.,12.0,0.,12.0
1979-07-04 18:56:37.480 ,3,0,1.,12.0,0.,12.0,0.,12.0,0.,12.0
1979-07-04 18:56:49.480 ,2,1,0.,12.0,0.,12.0,0.,12.0,0.,12.0
1979-07-04 18:57:01.480 ,2,1,0.,12.0,0.,12.0,0.,12.0,0.,12.0
1979-07-04 18:57:13.480 ,2,0,0.,12.0,0.,12.0,0.,12.0,0.,12.0
1979-07-04 18:57:25.480 ,2,0,0.,12.0,0.,12.0,0.,12.0,0.,12.0
1979-07-04 18:57:37.480 ,1,1,0.,12.0,0.,12.0,0.,12.0,0.,12.0
1979-07-04 18:57:49.480 ,1,1,0.,12.0,0.,12.0,0.,12.0,0.,12.0
1979-07-04 18:58:01.480 ,1,0,0.,12.0,0.,12.0,0.,12.0,0.,12.0
1979-07-04 18:58:13.480 ,1,0,0.,12.0,0.,12.0,0.,12.0,0.,12.0
1979-07-04 18:58:25.480 ,0,1,0.,12.0,0.,12.0,0.,12.0,0.,12.0
1979-07-04 18:58:37.480 ,0,1,0.,12.0,0.,12.0,0.,12.0,0.,12.0
1979-07-04 18:58:49.480 ,0,0,0.,12.0,0.,12.0,0.,12.0,0.,12.0
1979-07-04 18:59:01.480 ,0,0,0.,12.0,0.,12.0,0.,12.0,0.,12.0
1979-07-04 18:59:13.480 ,0,1,0.,12.0,0.,12.0,0.,12.0,0.,12.0
1979-07-04 18:59:25.480 ,0,1,0.,12.0,0.,12.0,0.,12.0,0.,12.0
1979-07-04 18:59:37.480 ,0,0,0.,12.0,0.,12.0,0.,12.0,0.,12.0
1979-07-04 18:59:49.480 ,0,0,0.,12.0,0.,12.0,0.,12.0,0.,12.0
1979-07-04 19:00:01.480 ,1,1,0.,12.0,0.,12.0,0.,12.0,0.,12.0
1979-07-04 19:00:13.480 ,1,1,0.,12.0,0.,12.0,0.,12.0,0.,12.0
1979-07-04 19:00:25.480 ,1,0,0.,12.0,0.,12.0,0.,12.0,0.,12.0
1979-07-04 19:00:37.480 ,1,0,0.,12.0,0.,12.0,0.,12.0,0.,12.0
1979-07-04 19:00:49.480 ,2,1,0.,12.0,0.,12.0,0.,12.0,0.,12.0
1979-07-04 19:01:01.480 ,2,1,0.,12.0,0.,12.0,0.,12.0,0.,12.0
1979-07-04 19:01:13.480 ,2,0,0.,12.0,0.,12.0,0.,12.0,0.,12.0
1979-07-04 19:01:25.480 ,2,0,0.,12.0,0.,12.0,0.,12.0,0.,12.0
1979-07-04 19:01:37.480 ,3,1,0.,12.0,0.,12.0,0.,12.0,0.,12.0
1979-07-04 19:01:49.480 ,3,1,0.,12.0,0.,12.0,0.,12.0,0.,12.0
1979-07-04 19:02:01.480 ,3,0,0.,12.0,0.,12.0,0.,12.0,0.,12.0
1979-07-04 19:02:13.480 ,3,0,0.,12.0,0.,12.0,0.,12.0,0.,12.0
1979-07-04 19:02:25.480 ,4,1,0.,12.0,0.,12.0,0.,12.0,0.,12.0
1979-07-04 19:02:37.480 ,4,1,0.,12.0,0.,12.0,0.,12.0,0.,12.0
1979-07-04 19:02:49.480 ,4,0,0.,12.0,0.,12.0,0.,12.0,0.,12.0
1979-07-04 19:03:01.480 ,4,0,0.,12.0,0.,12.0,0.,12.0,0.,12.0
1979-07-04 19:03:13.480 ,5,1,0.,12.0,0.,12.0,0.,12.0,0.,12.0
1979-07-04 19:03:25.480 ,5,1,0.,12.0,0.,12.0,0.,12.0,0.,12.0
1979-07-04 19:03:37.480 ,5,0,0.,12.0,0.,12.0,0.,12.0,0.,12.0
1979-07-04 19:03:49.480 ,5,0,0.,12.0,0.,12.0,0.,12.0,0.,12.0
1979-07-04 19:04:01.480 ,6,1,0.,12.0,0.,12.0,0.,12.0,0.,12.0
1979-07-04 19:04:13.480 ,6,1,0.,12.0,0.,12.0,0.,12.0,0.,12.0
1979-07-04 19:04:25.480 ,6,0,0.,12.0,0.,12.0,0.,12.0,0.,12.0
1979-07-04 19:04:37.480 ,6,0,0.,12.0,0.,12.0,0.,12.0,0.,12.0
1979-07-04 19:04:49.480 ,7,1,0.,12.0,0.,12.0,0.,12.0,0.,12.0
1979-07-04 19:05:01.480 ,7,1,0.,12.0,0.,12.0,0.,12.0,0.,12.0
1979-07-04 19:05:13.480 ,7,0,0.,12.0,0.,12.0,0.,12.0,0.,12.0
1979-07-04 19:05:25.480 ,7,0,0.,12.0,0.,12.0,0.,12.0,0.,12.0
1979-07-04 19:05:37.480 ,7,1,0.,12.0,0.,12.0,0.,12.0,0.,12.0
1979-07-04 19:05:49.480 ,7,1,0.,12.0,0.,12.0,0.,12.0,0.,12.0
1979-07-04 19:06:01.480 ,7,0,0.,12.0,0.,12.0,0.,12.0,0.,12.0
1979-07-04 19:06:13.480 ,7,0,0.,12.0,0.,12.0,0.,12.0,0.,12.0
1979-07-04 19:06:25.480 ,6,1,0.,12.0,0.,12.0,0.,12.0,0.,12.0
1979-07-04 19:06:37.480 ,6,1,0.,12.0,0.,12.0,0.,12.0,0.,12.0
1979-07-04 19:06:49.480 ,6,0,0.,12.0,0.,12.0,0.,12.0,0.,12.0
1979-07-04 19:07:01.480 ,6,0,0.,12.0,0.,12.0,0.,12.0,0.,12.0
1979-07-04 19:07:13.480 ,5,1,0.,12.0,0.,12.0,0.,12.0,0.,12.0
1979-07-04 19:07:25.480 ,5,1,0.,12.0,0.,12.0,0.,12.0,0.,12.0
1979-07-04 19:07:37.480 ,5,0,0.,12.0,0.,12.0,0.,12.0,0.,12.0
1979-07-04 19:07:49.480 ,5,0,0.,12.0,0.,12.0,0.,12.0,0.,12.0
1979-07-04 19:08:01.480 ,4,1,0.,12.0,0.,12.0,0.,12.0,0.,12.0
1979-07-04 19:08:13.480 ,4,1,0.,12.0,0.,12.0,0.,12.0,0.,12.0
1979-07-04 19:08:25.480 ,4,0,1.,12.0,0.,12.0,0.,12.0,0.,12.0
1979-07-04 19:08:37.480 ,4,0,0.,12.0,0.,12.0,0.,12.0,0.,12.0
1979-07-04 19:08:49.480 ,0,0,0.,12.0,0.,12.0,0.,12.0,0.,12.0
1979-07-04 19:09:01.480 ,0,0,0.,12.0,0.,12.0,0.,12.0,0.,12.0
1979-07-04 19:09:13.480 ,0,0,0.,12.0,0.,12.0,0.,12.0,0.,12.0
1979-07-04 19:09:25.480 ,0,0,0.,12.0,0.,12.0,0.,12.0,0.,12.0
1979-07-04 19:09:37.480 ,2,1,0.,12.0,0.,12.0,0.,12.0,0.,12.0
1979-07-04 19:09:49.480 ,2,1,0.,12.0,0.,12.0,0.,12.0,0.,12.0
1979-07-04 19:10:01.480 ,2,0,0.,12.0,0.,12.0,0.,12.0,0.,12.0
1979-07-04 19:10:13.480 ,2,0,0.,12.0,0.,12.0,0.,12.0,0.,12.0
1979-07-04 19:10:25.480 ,1,1,0.,12.0,0.,12.0,0.,12.0,0.,12.0
1979-07-04 19:10:37.480 ,1,1,0.,12.0,0.,12.0,0.,12.0,0.,12.0
1979-07-04 19:10:49.480 ,1,0,0.,12.0,0.,12.0,0.,12.0,0.,12.0
1979-07-04 19:11:01.480 ,1,0,0.,12.0,0.,12.0,0.,12.0,0.,12.0
1979-07-04 19:11:13.480 ,0,1,0.,12.0,0.,12.0,0.,12.0,0.,12.0
1979-07-04 19:11:25.480 ,0,1,0.,12.0,0.,12.0,0.,12.0,0.,12.0
1979-07-04 19:11:37.480 ,0,0,0.,12.0,0.,12.0,0.,12.0,0.,12.0
1979-07-04 19:11:49.480 ,0,0,0.,12.0,0.,12.0,0.,12.0,0.,12.0
1979-07-04 19:12:01.480 ,0,1,0.,12.0,0.,12.0,0.,12.0,0.,12.0
1979-07-04 19:12:13.480 ,0,1,0.,12.0,0.,12.0,0.,12.0,0.,12.0
1979-07-04 19:12:25.480 ,0,0,0.,12.0,0.,12.0,0.,12.0,0.,12.0
1979-07-04 19:12:37.480 ,0,0,0.,12.0,0.,12.0,0.,12.0,0.,12.0
1979-07-04 19:12:49.480 ,1,1,0.,12.0,0.,12.0,0.,12.0,0.,12.0
1979-07-04 19:13:01.480 ,1,1,0.,12.0,0.,12.0,0.,12.0,0.,12.0
1979-07-04 19:13:13.480 ,1,0,0.,12.0,0.,12.0,0.,12.0,0.,12.0
1979-07-04 19:13:25.480 ,1,0,0.,12.0,0.,12.0,0.,12.0,0.,12.0
1979-07-04 19:13:37.480 ,2,1,0.,12.0,0.,12.0,0.,12.0,0.,12.0
1979-07-04 19:13:49.480 ,2,1,0.,12.0,0.,12.0,0.,12.0,0.,12.0
1979-07-04 19:14:01.480 ,2,0,0.,12.0,0.,12.0,0.,12.0,0.,12.0
1979-07-04 19:14:13.480 ,2,0,0.,12.0,0.,12.0,0.,12.0,0.,12.0
1979-07-04 19:14:25.480 ,3,1,0.,12.0,0.,12.0,0.,12.0,0.,12.0
1979-07-04 19:14:37.480 ,3,1,0.,12.0,0.,12.0,0.,12.0,0.,12.0
1979-07-04 19:14:49.480 ,3,0,0.,12.0,0.,12.0,0.,12.0,0.,12.0
1979-07-04 19:15:01.480 ,3,0,0.,12.0,0.,12.0,0.,12.0,0.,12.0
1979-07-04 19:15:13.480 ,4,1,0.,12.0,0.,12.0,0.,12.0,0.,12.0
1979-07-04 19:15:25.480 ,4,1,0.,12.0,0.,12.0,0.,12.0,0.,12.0
1979-07-04 19:15:37.480 ,4,0,0.,12.0,0.,12.0,0.,12.0,0.,12.0
1979-07-04 19:15:49.480 ,4,0,0.,12.0,0.,12.0,0.,12.0,0.,12.0
1979-07-04 19:16:01.480 ,5,1,0.,12.0,0.,12.0,0.,12.0,0.,12.0
1979-07-04 19:16:13.480 ,5,1,0.,12.0,0.,12.0,0.,12.0,0.,12.0
1979-07-04 19:16:25.480 ,5,0,0.,12.0,0.,12.0,0.,12.0,0.,12.0
1979-07-04 19:16:37.480 ,5,0,0.,12.0,0.,12.0,0.,12.0,0.,12.0
1979-07-04 19:16:49.480 ,6,1,0.,12.0,0.,12.0,0.,12.0,0.,12.0
1979-07-04 19:17:01.480 ,6,1,0.,12.0,0.,12.0,0.,12.0,0.,12.0
1979-07-04 19:17:13.480 ,6,0,0.,12.0,0.,12.0,0.,12.0,0.,12.0
1979-07-04 19:17:25.480 ,6,0,0.,12.0,0.,12.0,0.,12.0,0.,12.0